Tracking 29892 objects as of 21-Nov-2024
HD Live streaming from Space Station
objects crossing your sky now

TITAN 3C TRANSTAGE DEB

Track TITAN 3C TRANSTAGE DEB now!
10-day predictions


NORAD ID: 1668
Int'l Code: 1965-082AF
Perigee: 627.3 km
Apogee: 648.4 km
Inclination: 32.1 °
Period: 97.3 minutes
Semi major axis: 7008 km
RCS: 2.8531 m2 (large)
Launch date: October 15, 1965
Source: United States (US)
Launch site: AIR FORCE EASTERN TEST RANGE (AFETR)

Note: This is SATELLITE DEBRIS
Your satellite tracking list
Your tracking list is empty




NASA's NSSDC Master Catalog

Two Line Element Set (TLE):
1 01668U 65082AF  24325.77258885  .00003721  00000-0  48102-3 0  9999
2 01668  32.0687  73.2586 0015013  48.0788 312.1139 14.79563661133257
Source of the keplerian elements: AFSPC